Location: downtown San Diego
(32.7310°N, 117.1990°W)
Time: 20:07:28
(UTC-08:00)

Helios 1A - Pass Details

Date: 19 May 2017
Orbit: 587 x 603 km, 98.2° (Epoch: 15 October)

Event Time Altitude Azimuth Distance (km) Brightness Sun altitude
Exits shadow 21:01:38 15° 171° (S) 1,633 4.8 -14.9°
Maximum altitude 21:05:05 79° 256° (WSW) 616 3.1 -15.5°
Drops below altitude 10° 21:09:19 10° 345° (NNW) 1,944 6.4 -16.2°
Sets 21:11:30 0° 347° (NNW) 2,847 7.3 -16.6°
